Погода в Сьреме

Польша     52°05′12″N   17°01′05″E
темп.,
°C
ветер,
м/с
пор.,
м/с
влажн.,
%
обл.,
%
осадки,
мм/ч
давл.,
гПа
погр.,
м
2 марта, вт
вт201:00+2зюз23910 0.0 103634
04:00+1зюз23930 0.0 103437
07:00+1зюз34930 0.0 103563
10:00+6зсз35760 0.0 1035308
13:00+10зсз45610 0.0 1034519
16:00+10зсз35630 0.0 1033427
19:00+5зсз23740 0.0 103422
22:00+4ссз11810 0.0 103322
3 марта, ср
ср301:00+3ю00820 0.0 103422
04:00+2ююз22810 0.0 103222
07:00+2юз22820 0.0 103122
10:00+8юз34680 0.0 1029271
13:00+12юз45550 0.0 1028560
16:00+12юз37580 0.0 1024386
19:00+7юз45720 0.0 102380
22:00+6зюз498524 0.0 1021156
4 марта, чт
чт401:00+6зюз5118733 0.0 1020258
04:00+6з6129227 0.0 1017406
07:00+5з5129550 0.0 1016434
10:00+8з7117548 0.0 1015729
13:00+9зсз696340 0.0 10141108
16:00+4ссз687797 0.0 1013573
19:00+4ссз467799 0.0 1014613
22:00+2с4696100 0.3 1016420
5 марта, пт
пт501:000ссв6988100 0.8 1017672
04:00−1ссв488499 0.1 1018447
07:00−2с378650 0.1 1020276
10:00+2с46588 0.0 10211253
13:00+4сз454754 0.1 10221750
16:00+3сз464891 0.3 10231785
19:000ссз4106684 0.5 1025340
22:00−2ссз387329 0.0 1028276
6 марта, сб
сб601:00−3сз378015 0.0 1029236
04:00−3зсз36770 0.0 1030197
07:00−2з48720 0.0 1031285
10:00+2зсз57480 0.0 10321169
13:00+4з67380 0.0 10311516
16:00+3з68400 0.0 10291329
19:000зюз411550 0.0 1028223
22:000зюз613565 0.0 1028358